Location: Sluknov
(51.0170°N, 14.4670°E)
Time: 17:21:10
(UTC+01:00)

Tiangong - Visible Passes

Search period start: 14 February 2026 00:00
Search period end: 24 February 2026 00:00
Orbit: 386 x 392 km, 41.5° (Epoch: 13 February)

Date Brightness Start Highest point End Pass type
(mag) Time Alt. Az. Time Alt. Az. Time Alt. Az.
14 Feb 0.2 18:57:59 10° SSW 18:59:49 14° S 19:00:16 14° SSE visible
15 Feb 0.4 18:00:11 10° SSW 18:01:43 13° SSE 18:03:16 10° SE visible
15 Feb 0.5 19:36:03 10° SW 19:37:04 13° SSW 19:37:04 13° SSW visible
16 Feb 0.3 18:37:49 10° SW 18:39:45 15° S 18:41:33 11° SE visible
17 Feb 0.5 19:16:17 10° SW 19:17:45 13° SSW 19:18:19 12° S visible
18 Feb 0.5 18:17:46 10° SW 18:19:34 14° S 18:21:23 10° SSE visible
